Regional Weather Roundup
Issued by NWS

Home | Current Version | Previous Version | Text Only | Print | Product List | Glossary On
Versions: 1 2 3 4 5 6 7 8 9 10 11 12 13 14 15 16 17 18 19 20 21 22 23 24 25 26 27 28 29 30 31 32 33 34 35 36 37 38 39 40 41 42 43 44 45 46 47 48 49 50
358
ASUS44 KBMX 080010
RWRAL

ALABAMA REGIONAL WEATHER ROUNDUP
NATIONAL WEATHER SERVICE BIRMINGHAM AL
600 PM CST WED DEC 07 2016

NOTE: "FAIR" INDICATES FEW OR NO CLOUDS BELOW 12,000 FEET
WITH NO SIGNIFICANT WEATHER AND/OR OBSTRUCTIONS TO VISIBILITY.

THE REMARK "TC" DENOTES TEMPERATURE IN DEGREES CELSIUS.

ALZ001>011-014-016>018-020-080100-
NORTH ALABAMA

CITY           SKY/WX    TMP DP  RH WIND       PRES   REMARKS
MUSCLE SHOALS  CLOUDY    44  34  67 NW5       30.19R
6HR MIN TEMP:  43; 6HR MAX TEMP:  45;

HUNTSVILLE     CLOUDY    45  35  68 N8        30.16R
6HR MIN TEMP:  45; 6HR MAX TEMP:  47;

DECATUR        CLOUDY    43  36  76 NW7       30.18R
6HR MIN TEMP:  43; 6HR MAX TEMP:  45;

HALEYVILLE     CLOUDY    42  36  79 N6        30.19R
6HR MIN TEMP:  42; 6HR MAX TEMP:  44;

GADSDEN        CLOUDY    48  39  71 W8        30.15R
6HR MIN TEMP:  48; 6HR MAX TEMP:  56;

$$

ALZ012-013-022-023-030>036-040>044-080100-
WEST CENTRAL ALABAMA

CITY           SKY/WX    TMP DP  RH WIND       PRES   REMARKS
TUSCALOOSA     CLOUDY    50  42  74 N6        30.17R
6HR MIN TEMP:  50; 6HR MAX TEMP:  52;

$$

ALZ015-024>027-033>036-040>044-080100-
CENTRAL ALABAMA

CITY           SKY/WX    TMP DP  RH WIND       PRES   REMARKS
BIRMINGHAM     CLOUDY    48  40  73 NW8       30.18R
6HR MIN TEMP:  48; 6HR MAX TEMP:  51;

MONTGOMERY     CLOUDY    55  46  71 W8        30.14R
6HR MIN TEMP:  54; 6HR MAX TEMP:  57;

SHELBY CO ARPT CLOUDY    50  44  80 NW7       30.16R
6HR MIN TEMP:  50; 6HR MAX TEMP:  52;

MAXWELL AFB    CLOUDY    54  48  80 NW6       30.13R
6HR MIN TEMP:  54; 6HR MAX TEMP:  56;

GREENVILLE     CLOUDY    55  46  71 NW6       30.12R
6HR MIN TEMP:  54; 6HR MAX TEMP:  59;

$$

ALZ019-021-028-029-037-038-045>048-080100-
EAST CENTRAL ALABAMA

CITY           SKY/WX    TMP DP  RH WIND       PRES   REMARKS
ANNISTON       CLOUDY    50  39  66 NW6       30.13R
6HR MIN TEMP:  50; 6HR MAX TEMP:  54;

ALEXANDER CITY CLOUDY    55  49  80 W5        30.13R
6HR MIN TEMP:  55; 6HR MAX TEMP:  57;

AUBURN         CLOUDY    52  46  80 W5        30.12R
6HR MIN TEMP:  52; 6HR MAX TEMP:  53;

$$

ALZ051>064-080100-
SOUTHWEST ALABAMA

CITY           SKY/WX    TMP DP  RH WIND       PRES   REMARKS
MOBILE         MOCLDY    57  51  80 CALM      30.12R
6HR MIN TEMP:  57; 6HR MAX TEMP:  66;

BROOKLEY FIELD MOCLDY    59  55  87 CALM      30.13R
6HR MIN TEMP:  58; 6HR MAX TEMP:  65;

EVERGREEN      CLEAR     50  47  89 CALM      30.12R
6HR MIN TEMP:  50; 6HR MAX TEMP:  60;

$$

ALZ049-050-065>069-080100-
SOUTHEAST ALABAMA

CITY           SKY/WX    TMP DP  RH WIND       PRES   REMARKS
DOTHAN         CLOUDY    55  49  80 NW7       30.15R
6HR MIN TEMP:  54; 6HR MAX TEMP:  57;

OZARK          PTCLDY    53  48  83 N6        30.12R
6HR MIN TEMP:  53; 6HR MAX TEMP:  58;

TROY           CLOUDY    52  50  93 CALM      30.13R
6HR MIN TEMP:  52; 6HR MAX TEMP:  54;

EUFAULA        CLOUDY    55  48  77 CALM      30.11R
6HR MIN TEMP:  55; 6HR MAX TEMP:  57;

$$




USA.gov is the U.S. government's official web portal to all federal, state and local government web resources and services.